N3PL Weather Reports


Display with metric or nautical units.
time (UTC)temp
F
wind
direction
speed
MPH
gust
MPH
rain 1hr
in
rain 24hr
in
rain mn
in
humidity
%
barometer
mb
20260506051008 68 176 0.0 0.0 0.00 0.00 0.00 58 1005.8
20260506050515 68 179 0.0 0.0 0.00 0.00 0.00 58 1005.8
20260506045051 68 150 0.0 0.0 0.00 0.00 0.00 56 1005.9
20260506044613 68 157 0.0 0.0 0.00 0.00 0.00 56 1005.9
20260506044053 68 155 0.0 0.0 0.00 0.00 0.00 55 1005.9
20260506043558 68 161 0.0 0.0 0.00 0.00 0.00 55 1005.9
20260506043102 68 161 0.0 0.0 0.00 0.00 0.00 55 1005.9
20260506042605 68 169 0.0 0.0 0.00 0.00 0.00 54 1005.9
20260506042053 68 169 0.0 0.0 0.00 0.00 0.00 54 1005.9
20260506041555 68 169 0.0 0.0 0.00 0.00 0.00 54 1005.9
20260506041057 68 169 0.0 0.0 0.00 0.00 0.00 54 1005.9
20260506040604 68 169 0.0 0.0 0.00 0.00 0.00 53 1005.9
20260506040001 69 169 0.0 0.0 0.00 0.00 0.00 53 1005.9
20260506035503 69 169 0.0 0.0 0.00 0.00 0.00 53 1005.8
20260506035057 69 169 0.0 0.0 0.00 0.00 0.00 53 1005.8
20260506034604 69 169 0.0 0.0 0.00 0.00 0.00 52 1005.8
20260506034001 69 169 0.0 0.0 0.00 0.00 0.00 52 1005.7
20260506033503 69 169 0.0 0.0 0.00 0.00 0.00 52 1005.7
20260506033005 69 169 0.0 0.0 0.00 0.00 0.00 52 1005.7
20260506032507 69 169 0.0 0.0 0.00 0.00 0.00 52 1005.7
20260506032010 69 169 0.0 0.0 0.00 0.00 0.00 51 1005.7
20260506031606 69 169 0.0 0.0 0.00 0.00 0.00 51 1005.7
20260506031007 69 169 0.0 0.0 0.00 0.00 0.00 50 1005.9
20260506030510 69 175 0.0 0.0 0.00 0.00 0.00 51 1005.9
20260506025502 70 175 0.0 0.0 0.00 0.00 0.00 50 1005.9
20260506025006 70 175 0.0 0.0 0.00 0.00 0.00 50 1005.9
20260506024602 70 175 0.0 0.0 0.00 0.00 0.00 50 1005.9
20260506024104 70 175 0.0 0.0 0.00 0.00 0.00 49 1005.9
20260506023607 70 175 0.0 0.0 0.00 0.00 0.00 49 1005.9
20260506023004 70 160 0.0 0.0 0.00 0.00 0.00 49 1005.9
20260506022557 70 157 0.0 0.0 0.00 0.00 0.00 49 1005.9
20260506022059 70 157 0.0 0.0 0.00 0.00 0.00 48 1005.9
20260506021619 71 157 0.0 0.0 0.00 0.00 0.00 48 1005.9
20260506021106 71 157 0.0 0.0 0.00 0.00 0.00 47 1005.8
20260506020554 71 157 0.0 0.0 0.00 0.00 0.00 47 1005.8
20260506020042 71 154 0.0 0.0 0.00 0.00 0.00 46 1005.8
20260506015529 71 154 0.0 0.0 0.00 0.00 0.00 46 1005.6
20260506015034 71 154 0.0 0.0 0.00 0.00 0.00 45 1005.6
20260506014537 72 154 0.0 0.0 0.00 0.00 0.00 45 1005.6
20260506014041 72 134 0.0 0.0 0.00 0.00 0.00 44 1005.5
20260506013549 72 134 0.0 0.0 0.00 0.00 0.00 44 1005.5
20260506013104 72 174 0.0 0.0 0.00 0.00 0.00 43 1005.5
20260506012600 72 176 0.0 0.0 0.00 0.00 0.00 43 1005.3
20260506012104 72 176 0.0 0.0 0.00 0.00 0.00 43 1005.3
20260506011502 72 176 0.0 0.0 0.00 0.00 0.00 42 1005.3
20260506011008 73 176 0.0 0.0 0.00 0.00 0.00 42 1005.2
20260506010556 73 172 0.0 0.0 0.00 0.00 0.00 42 1005.2
20260506010003 73 171 0.0 0.0 0.00 0.00 0.00 41 1005.2
20260506005505 73 171 0.0 0.0 0.00 0.00 0.00 41 1005.0
20260506005008 73 171 0.0 0.0 0.00 0.00 0.00 40 1005.0
20260506004510 73 171 0.0 0.0 0.00 0.00 0.00 40 1005.0
20260506004014 74 171 0.0 0.0 0.00 0.00 0.00 40 1004.9
20260506003604 74 171 0.0 0.0 0.00 0.00 0.00 39 1004.9
20260506003005 74 171 0.0 0.0 0.00 0.00 0.00 39 1004.9
20260506002507 74 168 0.0 0.0 0.00 0.00 0.00 39 1004.7
20260506002010 74 168 0.0 0.0 0.00 0.00 0.00 38 1004.7
20260506001607 74 168 0.0 0.0 0.00 0.00 0.00 38 1004.7
20260506001006 75 168 0.0 0.0 0.00 0.00 0.00 37 1004.5
20260506000602 75 168 0.0 0.0 0.00 0.00 0.00 37 1004.5
20260506000001 75 147 0.0 0.0 0.00 0.00 0.00 36 1004.5
20260505235503 76 143 0.0 0.0 0.00 0.00 0.00 36 1004.4
20260505235007 76 174 0.0 0.0 0.00 0.00 0.00 35 1004.4
20260505234610 76 186 0.0 0.0 0.00 0.00 0.00 35 1004.4
20260505234105 76 127 0.0 0.0 0.00 0.00 0.00 34 1004.4
20260505233502 77 179 0.0 0.0 0.00 0.00 0.00 32 1004.4
20260505233008 77 179 0.0 0.0 0.00 0.00 0.00 32 1004.4
20260505232510 77 179 0.0 0.0 0.00 0.00 0.00 31 1004.3
20260505232011 77 178 0.0 0.0 0.00 0.00 0.00 30 1004.3
20260505231606 77 168 0.0 0.0 0.00 0.00 0.00 30 1004.3
20260505231105 77 168 0.0 0.0 0.00 0.00 0.00 30 1004.3
20260505230504 78 191 0.0 0.0 0.00 0.00 0.00 31 1004.3
20260505230011 78 168 0.0 0.0 0.00 0.00 0.00 30 1004.3
20260505225503 78 128 0.0 0.0 0.00 0.00 0.00 30 1004.2
20260505225015 78 178 0.0 0.0 0.00 0.00 0.00 30 1004.2
20260505224503 78 165 0.0 0.0 0.00 0.00 0.00 30 1004.2
20260505224059 78 176 0.0 0.0 0.00 0.00 0.00 29 1004.3
20260505223603 79 140 0.0 0.0 0.00 0.00 0.00 29 1004.3
20260505223106 79 174 0.0 0.0 0.00 0.00 0.00 29 1004.3
20260505222555 79 152 0.0 0.0 0.00 0.00 0.00 30 1004.4
20260505222058 79 229 0.0 0.0 0.00 0.00 0.00 29 1004.4
20260505221602 79 164 0.0 0.0 0.00 0.00 0.00 28 1004.4
20260505221106 79 192 0.0 0.0 0.00 0.00 0.00 29 1004.4
20260505220502 79 175 0.0 0.0 0.00 0.00 0.00 30 1004.4
20260505220005 78 171 0.0 0.0 0.00 0.00 0.00 30 1004.4
20260505215508 79 172 0.0 0.0 0.00 0.00 0.00 29 1004.2
20260505215101 79 152 0.0 0.0 0.00 0.00 0.00 29 1004.2
20260505214609 79 144 0.0 0.0 0.00 0.00 0.00 30 1004.2
20260505214052 79 179 0.0 0.0 0.00 0.00 0.00 29 1004.2
20260505213557 79 155 0.0 0.0 0.00 0.00 0.00 29 1004.2
20260505213007 79 189 0.0 0.0 0.00 0.00 0.00 29 1004.2
20260505212513 80 169 0.0 0.0 0.00 0.00 0.00 28 1004.1
20260505212101 80 176 0.0 0.0 0.00 0.00 0.00 29 1004.1
20260505211547 79 186 0.0 0.0 0.00 0.00 0.00 30 1004.1
20260505211038 79 175 0.0 0.0 0.00 0.00 0.00 29 1004.2
20260505210542 79 172 0.0 0.0 0.00 0.00 0.00 28 1004.2
20260505210054 79 165 0.0 0.0 0.00 0.00 0.00 29 1004.2
20260505205554 79 200 0.0 0.0 0.00 0.00 0.00 30 1004.1
20260505205100 79 169 0.0 0.0 0.00 0.00 0.00 30 1004.1
20260505204605 79 248 0.0 0.0 0.00 0.00 0.00 29 1004.1
20260505204002 79 160 0.0 0.0 0.00 0.00 0.00 29 1004.3
20260505203504 79 167 0.0 0.0 0.00 0.00 0.00 28 1004.3
20260505203016 79 175 0.0 0.0 0.00 0.00 0.00 27 1004.3
20260505202601 79 168 0.0 0.0 0.00 0.00 0.00 27 1004.2
20260505202104 79 176 0.0 0.0 0.00 0.00 0.00 28 1004.2
20260505201504 79 157 0.0 0.0 0.00 0.00 0.00 27 1004.2
20260505201058 80 158 0.0 0.0 0.00 0.00 0.00 28 1004.4
20260505200603 80 250 0.0 0.0 0.00 0.00 0.00 29 1004.4
20260505200002 79 250 0.0 0.0 0.00 0.00 0.00 28 1004.4
20260505195556 79 192 0.0 0.0 0.00 0.00 0.00 28 1004.4
20260505195101 79 176 0.0 0.0 0.00 0.00 0.00 28 1004.4
20260505194609 79 154 0.0 0.0 0.00 0.00 0.00 27 1004.4
20260505194005 79 148 0.0 0.0 0.00 0.00 0.00 27 1004.6
20260505193558 79 191 0.0 0.0 0.00 0.00 0.00 28 1004.6
20260505193101 79 202 0.0 0.0 0.00 0.00 0.00 27 1004.6
20260505192605 80 164 0.0 0.0 0.00 0.00 0.00 27 1004.6
20260505192003 80 178 0.0 0.0 0.00 0.00 0.00 27 1004.6
20260505191557 81 209 0.0 0.0 0.00 0.00 0.00 28 1004.6
20260505191059 81 169 0.0 0.0 0.00 0.00 0.00 27 1004.8
20260505190608 81 195 0.0 0.0 0.00 0.00 0.00 28 1004.8
20260505190002 81 182 0.0 0.0 0.00 0.00 0.00 28 1004.8
20260505185505 81 222 0.0 0.0 0.00 0.00 0.00 27 1005.0
20260505185012 80 179 0.0 0.0 0.00 0.00 0.00 28 1005.0
20260505184510 80 178 0.0 0.0 0.00 0.00 0.00 28 1005.0
20260505184103 80 263 0.0 0.0 0.00 0.00 0.00 28 1005.4
20260505183500 80 223 0.0 0.0 0.00 0.00 0.00 27 1005.4
20260505183010 80 202 0.0 0.0 0.00 0.00 0.00 27 1005.4
20260505182512 80 209 0.0 0.0 0.00 0.00 0.00 28 1005.5
20260505182009 80 200 0.0 0.0 0.00 0.00 0.00 27 1005.5
20260505181512 80 189 0.0 0.0 0.00 0.00 0.00 29 1005.5
20260505181104 80 174 0.0 0.0 0.00 0.00 0.00 32 1005.6
20260505180555 80 161 0.0 0.0 0.00 0.00 0.00 31 1005.6
20260505180107 81 239 0.0 0.0 0.00 0.00 0.00 32 1005.6
20260505175559 80 162 0.0 0.0 0.00 0.00 0.00 34 1005.8
20260505175104 80 162 0.0 0.0 0.00 0.00 0.00 35 1005.8
20260505174505 79 184 0.0 0.0 0.00 0.00 0.00 35 1005.8
20260505174006 79 174 0.0 0.0 0.00 0.00 0.00 35 1005.8
20260505173602 79 167 0.0 0.0 0.00 0.00 0.00 34 1005.8
20260505173004 80 174 0.0 0.0 0.00 0.00 0.00 33 1005.8
20260505172506 81 120 0.0 0.0 0.00 0.00 0.00 34 1006.0
20260505172105 81 254 0.0 0.0 0.00 0.00 0.00 34 1006.0
20260505171502 80 254 0.0 0.0 0.00 0.00 0.00 33 1006.0
20260505171006 80 253 0.0 0.0 0.00 0.00 0.00 34 1006.1
20260505170510 80 254 0.0 0.0 0.00 0.00 0.00 33 1006.1
20260505165604 79 254 0.0 0.0 0.00 0.00 0.00 34 1006.3
20260505165003 79 254 0.0 0.0 0.00 0.00 0.00 33 1006.3
20260505164503 79 200 0.0 0.0 0.00 0.00 0.00 35 1006.3
20260505164007 79 154 0.0 0.0 0.00 0.00 0.00 35 1006.4
20260505163557 79 154 0.0 0.0 0.00 0.00 0.00 36 1006.4
20260505163102 79 171 0.0 0.0 0.00 0.00 0.00 35 1006.4
20260505162602 78 171 0.0 0.0 0.00 0.00 0.00 36 1006.4
20260505162106 78 171 0.0 0.0 0.00 0.00 0.00 37 1006.4
20260505161610 78 188 0.0 0.0 0.00 0.00 0.00 35 1006.4
20260505161058 78 188 0.0 0.0 0.00 0.00 0.00 37 1006.4
20260505160602 78 188 0.0 0.0 0.00 0.00 0.00 36 1006.4
20260505160106 77 188 0.0 0.0 0.00 0.00 0.00 37 1006.4
20260505153051 77 188 0.0 0.0 0.00 0.00 0.00 38 1006.6
20260505152558 76 188 0.0 0.0 0.00 0.00 0.00 39 1006.8
20260505152007 76 175 0.0 0.0 0.00 0.00 0.00 37 1006.8
20260505151508 76 233 0.0 0.0 0.00 0.00 0.00 39 1006.8
20260505151010 76 217 0.0 0.0 0.00 0.00 0.00 40 1006.8
20260505150515 75 217 0.0 0.0 0.00 0.00 0.00 41 1006.8
20260505150115 74 217 0.0 0.0 0.00 0.00 0.00 40 1006.8
20260505140603 70 274 0.0 0.0 0.00 0.00 0.00 49 1006.9
20260505140111 69 274 0.0 0.0 0.00 0.00 0.00 49 1006.9
20260505124607 63 354 0.0 0.0 0.00 0.00 0.00 60 1007.3
20260505124001 62 354 0.0 0.0 0.00 0.00 0.00 59 1007.1
20260505123504 62 354 0.0 0.0 0.00 0.00 0.00 60 1007.1
20260505123008 62 354 0.0 0.0 0.00 0.00 0.00 60 1007.1
20260505122513 61 354 0.0 0.0 0.00 0.00 0.00 60 1007.0
20260505122017 61 354 0.0 0.0 0.00 0.00 0.00 61 1007.0
20260505121506 61 248 0.0 0.0 0.00 0.00 0.00 62 1007.0
20260505121057 60 248 0.0 0.0 0.00 0.00 0.00 63 1007.0
20260505120544 60 248 0.0 0.0 0.00 0.00 0.00 64 1007.0
20260505120050 60 248 0.0 0.0 0.00 0.00 0.00 64 1007.0
20260505115551 60 248 0.0 0.0 0.00 0.00 0.00 64 1007.0
20260505115103 59 248 0.0 0.0 0.00 0.00 0.00 65 1007.0
20260505114502 59 248 0.0 0.0 0.00 0.00 0.00 67 1007.0
20260505114006 59 248 0.0 0.0 0.00 0.00 0.00 68 1006.9
20260505113507 59 248 0.0 0.0 0.00 0.00 0.00 69 1006.9
20260505113009 58 248 0.0 0.0 0.00 0.00 0.00 69 1006.9
20260505112604 58 248 0.0 0.0 0.00 0.00 0.00 69 1006.9
20260505112106 58 248 0.0 0.0 0.00 0.00 0.00 70 1006.9
20260505111504 58 248 0.0 0.0 0.00 0.00 0.00 70 1006.9
20260505111005 58 248 0.0 0.0 0.00 0.00 0.00 71 1006.6
20260505110559 57 248 0.0 0.0 0.00 0.00 0.00 71 1006.6
20260505110106 57 248 0.0 0.0 0.00 0.00 0.00 72 1006.6
20260505102001 58 248 0.0 0.0 0.00 0.00 0.00 70 1006.3
20260505101559 58 248 0.0 0.0 0.00 0.00 0.00 70 1006.3
20260505101002 58 248 0.0 0.0 0.00 0.00 0.00 70 1006.3
20260505100508 58 248 0.0 0.0 0.00 0.00 0.00 70 1006.3
20260505095604 58 248 0.0 0.0 0.00 0.00 0.00 70 1006.1
20260505095000 58 248 0.0 0.0 0.00 0.00 0.00 70 1006.1
20260505094503 58 248 0.0 0.0 0.00 0.00 0.00 71 1006.1
20260505094056 58 248 0.0 0.0 0.00 0.00 0.00 70 1006.1
20260505093600 58 248 0.0 0.0 0.00 0.00 0.00 70 1006.1
20260505093106 58 248 0.0 0.0 0.00 0.00 0.00 70 1006.1
20260505092503 58 248 0.0 0.0 0.00 0.00 0.00 69 1006.0
20260505092005 58 248 0.0 0.0 0.00 0.00 0.00 69 1006.0
20260505091508 58 248 0.0 0.0 0.00 0.00 0.00 69 1006.0
20260505091104 58 248 0.0 0.0 0.00 0.00 0.00 69 1006.0
20260505090502 58 248 0.0 0.0 0.00 0.00 0.00 69 1006.0
20260505090005 58 248 0.0 0.0 0.00 0.00 0.00 69 1006.0
20260505085511 58 248 0.0 0.0 0.00 0.00 0.00 69 1006.0
20260505085107 58 248 0.0 0.0 0.00 0.00 0.00 69 1006.0
20260505084501 58 248 0.0 0.0 0.00 0.00 0.00 69 1006.0
20260505084003 58 248 0.0 0.0 0.00 0.00 0.00 69 1006.0
20260505083510 58 248 0.0 0.0 0.00 0.00 0.00 70 1006.0
20260505083105 58 248 0.0 0.0 0.00 0.00 0.00 70 1006.0
20260505082604 58 248 0.0 0.0 0.00 0.00 0.00 71 1006.0
20260505082107 58 248 0.0 0.0 0.00 0.00 0.00 73 1006.0
20260505081505 57 248 0.0 0.0 0.00 0.00 0.00 75 1006.0
20260505081057 57 248 0.0 0.0 0.00 0.00 0.00 76 1005.9
20260505080559 57 248 0.0 0.0 0.00 0.00 0.00 76 1005.9
20260505080118 57 248 0.0 0.0 0.00 0.00 0.00 77 1005.9
20260505075603 57 248 0.0 0.0 0.00 0.00 0.00 77 1006.0
20260505075106 57 248 0.0 0.0 0.00 0.00 0.00 78 1006.0
20260505074505 57 248 0.0 0.0 0.00 0.00 0.00 77 1006.0
20260505074007 57 248 0.0 0.0 0.00 0.00 0.00 77 1006.1
20260505073605 57 248 0.0 0.0 0.00 0.00 0.00 76 1006.1
20260505073055 57 248 0.0 0.0 0.00 0.00 0.00 75 1006.1
20260505072557 57 248 0.0 0.0 0.00 0.00 0.00 74 1006.0
20260505072102 57 248 0.0 0.0 0.00 0.00 0.00 74 1006.0
20260505071607 58 248 0.0 0.0 0.00 0.00 0.00 71 1006.0
20260505071052 58 248 0.0 0.0 0.00 0.00 0.00 68 1006.0
20260505070606 58 248 0.0 0.0 0.00 0.00 0.00 68 1006.0
20260505070003 58 248 0.0 0.0 0.00 0.00 0.00 68 1006.0
20260505065505 58 248 0.0 0.0 0.00 0.00 0.00 68 1006.0
20260505065007 58 248 0.0 0.0 0.00 0.00 0.00 68 1006.0
20260505064600 57 248 0.0 0.0 0.00 0.00 0.00 68 1006.0
20260505064103 57 248 0.0 0.0 0.00 0.00 0.00 67 1006.0
20260505063606 57 248 0.0 0.0 0.00 0.00 0.00 67 1006.0
20260505063003 57 248 0.0 0.0 0.00 0.00 0.00 67 1006.0
20260505062512 57 248 0.0 0.0 0.00 0.00 0.00 66 1006.0
20260505062009 57 248 0.0 0.0 0.00 0.00 0.00 66 1006.0
20260505061514 57 248 0.0 0.0 0.00 0.00 0.00 65 1006.0
20260505061017 58 248 0.0 0.0 0.00 0.00 0.00 65 1006.1
20260505060504 58 248 0.0 0.0 0.00 0.00 0.00 63 1006.1
20260505055503 59 248 0.0 0.0 0.00 0.00 0.00 61 1006.0
20260505055007 59 248 0.0 0.0 0.00 0.00 0.00 61 1006.0
20260505054509 59 248 0.0 0.0 0.00 0.00 0.00 60 1006.0
20260505054011 59 248 0.0 0.0 0.00 0.00 0.00 60 1006.0
20260505053602 59 248 0.0 0.0 0.00 0.00 0.00 59 1006.0
20260505053106 59 248 0.0 0.0 0.00 0.00 0.00 59 1006.0
20260505052501 59 248 0.0 0.0 0.00 0.00 0.00 58 1006.1